Location: São Paulo
(23.5507°S, 46.6334°W)
Time: 23:51:17
(UTC-03:00)

Hubble Space Telescope - Pass Details

Date: 26 July 2021
Orbit: 535 x 539 km, 28.5° (Epoch: 23 September)

Event Time Altitude Azimuth Distance (km) Brightness Sun altitude
Exits shadow 05:15:04 20° 332° (NNW) 1,261 2.5 -20.4°
Maximum altitude 05:17:18 35° 25° (NNE) 872 2.1 -19.9°
Drops below altitude 10° 05:21:06 10° 91° (E) 1,793 4.6 -19.1°
Sets 05:23:30 0° 100° (E) 2,688 5.6 -18.6°
